Richlands, VA (24641)

11:43 AM EDT on August 29, 2015 (GMT -0400)
KM4HDM - Richlands, Virginia | | Change Station
CLOSE
Current Station
Personal Weather Station
Location: Richlands, VA
Elevation: 1972 ft
Nearby Weather Stations

Elev 1972 ft 37.09 °N, 81.83 °W | Updated 33 seconds ago

Overcast
Overcast
80.1 °F
Feels Like 81 °F
N
1.7
Wind Variable Wind from NNE

Today
High -- | Low -- °F
--% Chance of Precip.
Yesterday
High -- | Low -- °F
Precip. -- in
6:55 AM 8:00 PM
Full, 100% visible
Pressure 30.31 in
Visibility 10.0 miles
Clouds Mostly Cloudy 7000 ft
Overcast 8500 ft
Heat Index 81 °F
Dew Point 61 °F
Humidity 52%
Rainfall 0.00 in
Snow Depth Not available.
UV 3 out of 12
Pollen 8.40 out of 12
Air Quality Not available.
Flu Activity Not available.
METAR KJFZ 291535Z AUTO 30004KT 10SM BKN070 OVC085 24/M03 A3031 RMK AO2 T02361035
Pressure 30.31 in
Visibility 10.0 miles
Clouds Mostly Cloudy 7000 ft
Overcast 8500 ft
Heat Index 81 °F
Dew Point 61 °F
Humidity 52%
Rainfall 0.00 in
Snow Depth Not available.
UV 3 out of 12
Pollen 8.40 out of 12
Air Quality Not available.
Flu Activity Not available.
METAR KJFZ 291535Z AUTO 30004KT 10SM BKN070 OVC085 24/M03 A3031 RMK AO2 T02361035

10-Day Weather Forecast

×

Almanac

Astronomy

Aug. 29, 2015 Rise Set
Actual Time
Civil Twilight
Nautical Twilight
Astronomical Twilight
Moon
Length of Visible Light
Length of Day
Tomorrow will be .
, % of the Moon is Illuminated

Today's Extremes

State Highs State Lows

Community

WunderPhotos

Upload Photos

1,850,700 photos uploaded!

WunderBlogs® & News

Nearby

Air Quality

  Air Quality AQ Index Pollutant
Not available.

Snow Depth

Station Depth Elevation

Earthquake Activity

City Distance Mag. Time & Date
Minimum magnitude displayed is 2.5.

Coastal Water Temperatures

Place Temperature

Stations

Nearby Weather Stations

Station Location Temp. Windchill Dew Point Humidity Wind Precip. Elev Updated Type